KI6KEP Weather Reports


Display with metric or nautical units.
time (UTC)temp
F
wind
direction
speed
MPH
gust
MPH
rain 1hr
in
rain 24hr
in
rain mn
in
humidity
%
barometer
mb
20260507004002 77 181 5.0 12.0 0.00 0.00 0.00 24 1008.9
20260507003003 78 359 5.0 12.0 0.00 0.00 0.00 23 1008.9
20260507002502 78 33 6.0 11.0 0.00 0.00 0.00 23 1009.0
20260507001503 78 89 7.0 12.0 0.00 0.00 0.00 22 1008.9
20260507001002 78 85 8.0 13.0 0.00 0.00 0.00 23 1008.9
20260507000502 78 60 6.0 17.0 0.00 0.00 0.00 23 1008.9
20260507000002 78 53 5.0 17.0 0.00 0.00 0.00 23 1008.7
20260506235503 77 45 4.0 11.0 0.00 0.00 0.00 23 1008.6
20260506235002 77 358 4.0 11.0 0.00 0.00 0.00 23 1008.7
20260506234502 77 348 5.0 13.0 0.00 0.00 0.00 23 1008.7
20260506234002 78 1 4.0 14.0 0.00 0.00 0.00 23 1008.8
20260506233002 77 50 4.0 9.0 0.00 0.00 0.00 23 1008.9
20260506232503 77 28 5.0 15.0 0.00 0.00 0.00 23 1008.9
20260506232003 78 67 8.0 15.0 0.00 0.00 0.00 22 1009.0
20260506231502 78 85 8.0 15.0 0.00 0.00 0.00 23 1008.9
20260506231003 78 75 6.0 15.0 0.00 0.00 0.00 22 1008.9
20260506230503 77 93 5.0 12.0 0.00 0.00 0.00 23 1008.9
20260506230003 76 138 7.0 15.0 0.00 0.00 0.00 24 1008.9
20260506225502 77 142 7.0 15.0 0.00 0.00 0.00 24 1009.1
20260506225002 77 104 5.0 15.0 0.00 0.00 0.00 24 1009.1
20260506224003 77 359 5.0 13.0 0.00 0.00 0.00 24 1009.2
20260506223502 77 2 6.0 14.0 0.00 0.00 0.00 25 1009.4
20260506223002 77 39 8.0 14.0 0.00 0.00 0.00 25 1009.4
20260506222502 77 77 7.0 14.0 0.00 0.00 0.00 26 1009.3
20260506222003 77 65 6.0 14.0 0.00 0.00 0.00 26 1009.5
20260506221502 76 68 6.0 14.0 0.00 0.00 0.00 27 1009.6
20260506221002 76 35 6.0 13.0 0.00 0.00 0.00 28 1009.7
20260506220503 76 9 6.0 13.0 0.00 0.00 0.00 28 1009.8
20260506220002 76 37 4.0 13.0 0.00 0.00 0.00 29 1009.7
20260506215502 75 88 3.0 9.0 0.00 0.00 0.00 28 1009.7
20260506215002 75 88 4.0 10.0 0.00 0.00 0.00 30 1009.8
20260506214503 75 90 3.0 10.0 0.00 0.00 0.00 30 1009.9
20260506214002 75 103 4.0 10.0 0.00 0.00 0.00 30 1010.0
20260506213502 75 82 5.0 14.0 0.00 0.00 0.00 30 1010.2
20260506213003 75 67 4.0 14.0 0.00 0.00 0.00 30 1010.2
20260506212502 74 27 5.0 9.0 0.00 0.00 0.00 30 1010.2
20260506212002 74 1 5.0 10.0 0.00 0.00 0.00 31 1010.4
20260506211503 74 2 4.0 13.0 0.00 0.00 0.00 31 1010.4
20260506211003 74 1 5.0 13.0 0.00 0.00 0.00 32 1010.5
20260506210502 74 6 5.0 12.0 0.00 0.00 0.00 31 1010.6
20260506210003 74 15 5.0 18.0 0.00 0.00 0.00 31 1010.5
20260506205503 74 11 5.0 18.0 0.00 0.00 0.00 31 1010.5
20260506204502 72 3 7.0 14.0 0.00 0.00 0.00 32 1010.6
20260506204003 73 10 5.0 13.0 0.00 0.00 0.00 31 1010.6
20260506203502 73 27 5.0 13.0 0.00 0.00 0.00 31 1010.6
20260506203003 73 23 5.0 11.0 0.00 0.00 0.00 31 1010.7
20260506202002 73 50 5.0 11.0 0.00 0.00 0.00 31 1010.8
20260506201502 73 22 6.0 12.0 0.00 0.00 0.00 32 1010.8
20260506200502 72 359 6.0 11.0 0.00 0.00 0.00 32 1010.8
20260506200002 72 13 4.0 11.0 0.00 0.00 0.00 32 1010.6
20260506195503 71 29 4.0 9.0 0.00 0.00 0.00 32 1010.7
20260506195003 72 20 6.0 13.0 0.00 0.00 0.00 32 1010.8
20260506194502 71 41 5.0 13.0 0.00 0.00 0.00 32 1010.9
20260506194003 71 82 3.0 13.0 0.00 0.00 0.00 33 1010.8
20260506193502 70 70 5.0 12.0 0.00 0.00 0.00 33 1010.9
20260506193002 70 37 6.0 12.0 0.00 0.00 0.00 34 1011.0
20260506192503 70 21 5.0 11.0 0.00 0.00 0.00 34 1011.0
20260506192002 70 35 4.0 11.0 0.00 0.00 0.00 35 1011.2
20260506191003 70 35 5.0 12.0 0.00 0.00 0.00 36 1011.3
20260506190503 69 24 4.0 12.0 0.00 0.00 0.00 36 1011.3
20260506190002 69 58 4.0 12.0 0.00 0.00 0.00 37 1011.3
20260506185502 68 32 4.0 10.0 0.00 0.00 0.00 37 1011.4
20260506185004 68 11 4.0 11.0 0.00 0.00 0.00 37 1011.4
20260506184502 68 34 4.0 11.0 0.00 0.00 0.00 37 1011.5
20260506184002 68 35 3.0 10.0 0.00 0.00 0.00 37 1011.5
20260506183503 67 14 4.0 8.0 0.00 0.00 0.00 39 1011.6
20260506183003 67 9 5.0 10.0 0.00 0.00 0.00 38 1011.5
20260506182502 67 1 5.0 11.0 0.00 0.00 0.00 40 1011.6
20260506182002 67 2 4.0 11.0 0.00 0.00 0.00 39 1011.7
20260506181503 66 7 3.0 10.0 0.00 0.00 0.00 39 1011.7
20260506181003 66 15 3.0 10.0 0.00 0.00 0.00 40 1011.8
20260506180503 66 21 3.0 10.0 0.00 0.00 0.00 41 1011.7
20260506180002 65 22 5.0 10.0 0.00 0.00 0.00 42 1011.6
20260506175503 65 20 3.0 13.0 0.00 0.00 0.00 41 1011.6
20260506175003 65 18 3.0 13.0 0.00 0.00 0.00 43 1011.6
20260506174503 64 21 4.0 11.0 0.00 0.00 0.00 43 1011.5
20260506174003 64 17 4.0 11.0 0.00 0.00 0.00 43 1011.5
20260506173503 64 8 3.0 9.0 0.00 0.00 0.00 44 1011.6
20260506173002 64 6 3.0 9.0 0.00 0.00 0.00 45 1011.5
20260506172502 64 14 3.0 9.0 0.00 0.00 0.00 45 1011.6
20260506172003 63 12 2.0 9.0 0.00 0.00 0.00 46 1011.6
20260506171002 62 1 4.0 10.0 0.00 0.00 0.00 47 1011.6
20260506170503 62 1 4.0 9.0 0.00 0.00 0.00 48 1011.7
20260506170003 62 1 3.0 9.0 0.00 0.00 0.00 48 1011.6
20260506165502 61 4 2.0 6.0 0.00 0.00 0.00 50 1011.6
20260506165003 61 3 2.0 6.0 0.00 0.00 0.00 49 1011.6
20260506164503 61 1 1.0 6.0 0.00 0.00 0.00 50 1011.7
20260506164002 60 1 2.0 5.0 0.00 0.00 0.00 50 1011.7
20260506163502 60 1 2.0 5.0 0.00 0.00 0.00 50 1011.5
20260506163003 60 1 2.0 8.0 0.00 0.00 0.00 52 1011.5
20260506162503 59 2 3.0 8.0 0.00 0.00 0.00 53 1011.4
20260506161502 58 5 4.0 10.0 0.00 0.00 0.00 55 1011.6
20260506161003 58 3 5.0 11.0 0.00 0.00 0.00 55 1011.5
20260506160003 58 2 4.0 10.0 0.00 0.00 0.00 56 1011.5
20260506155502 57 3 3.0 10.0 0.00 0.00 0.00 56 1011.4
20260506155003 57 1 3.0 9.0 0.00 0.00 0.00 57 1011.4
20260506154502 56 3 3.0 8.0 0.00 0.00 0.00 58 1011.4
20260506154002 56 3 3.0 8.0 0.00 0.00 0.00 57 1011.5
20260506153003 56 1 2.0 6.0 0.00 0.00 0.00 58 1011.3
20260506152502 56 2 1.0 4.0 0.00 0.00 0.00 58 1011.3
20260506152002 55 1 1.0 5.0 0.00 0.00 0.00 59 1011.4
20260506151503 55 1 1.0 5.0 0.00 0.00 0.00 58 1011.3
20260506151002 55 1 0.0 1.0 0.00 0.00 0.00 59 1011.4
20260506150502 55 1 0.0 3.0 0.00 0.00 0.00 60 1011.3
20260506150003 55 1 0.0 3.0 0.00 0.00 0.00 59 1011.2
20260506145503 54 1 0.0 2.0 0.00 0.00 0.00 60 1011.3
20260506145002 54 1 0.0 2.0 0.00 0.00 0.00 60 1011.2
20260506144503 54 1 0.0 2.0 0.00 0.00 0.00 61 1011.3
20260506143502 53 1 0.0 2.0 0.00 0.00 0.00 63 1011.3
20260506143003 53 1 0.0 1.0 0.00 0.00 0.00 65 1011.2
20260506142502 52 1 1.0 3.0 0.00 0.00 0.00 67 1011.2
20260506141503 51 1 0.0 3.0 0.00 0.00 0.00 69 1010.9
20260506141002 51 1 0.0 3.0 0.00 0.00 0.00 70 1010.9
20260506140003 49 1 0.0 2.0 0.00 0.00 0.00 72 1010.7
20260506135503 49 1 0.0 2.0 0.00 0.00 0.00 73 1010.7
20260506135002 48 1 0.0 1.0 0.00 0.00 0.00 74 1010.6
20260506134502 48 1 0.0 2.0 0.00 0.00 0.00 75 1010.7
20260506134003 47 1 0.0 2.0 0.00 0.00 0.00 76 1010.6
20260506133503 46 1 0.0 2.0 0.00 0.00 0.00 77 1010.7
20260506133002 46 1 0.0 2.0 0.00 0.00 0.00 77 1010.6
20260506132502 46 1 0.0 1.0 0.00 0.00 0.00 78 1010.5
20260506132003 45 1 0.0 1.0 0.00 0.00 0.00 78 1010.5
20260506131503 45 1 1.0 3.0 0.00 0.00 0.00 78 1010.4
20260506130502 45 1 1.0 3.0 0.00 0.00 0.00 78 1010.3
20260506130003 45 1 1.0 3.0 0.00 0.00 0.00 78 1010.1
20260506125503 45 1 1.0 4.0 0.00 0.00 0.00 78 1010.1
20260506125003 45 1 2.0 4.0 0.00 0.00 0.00 78 1010.0
20260506124502 45 1 2.0 4.0 0.00 0.00 0.00 78 1010.0
20260506124003 45 1 2.0 4.0 0.00 0.00 0.00 79 1010.0
20260506123503 45 1 2.0 4.0 0.00 0.00 0.00 79 1009.8
20260506123002 45 1 3.0 4.0 0.00 0.00 0.00 79 1009.8
20260506122503 45 1 3.0 5.0 0.00 0.00 0.00 79 1009.8
20260506122003 45 1 3.0 5.0 0.00 0.00 0.00 80 1009.8
20260506121502 45 1 2.0 5.0 0.00 0.00 0.00 80 1009.9
20260506121002 45 1 3.0 5.0 0.00 0.00 0.00 80 1009.9
20260506120503 45 1 3.0 5.0 0.00 0.00 0.00 80 1009.9
20260506115502 45 1 3.0 6.0 0.00 0.00 0.00 80 1009.8
20260506115003 45 1 3.0 6.0 0.00 0.00 0.00 80 1009.8
20260506114503 45 1 3.0 6.0 0.00 0.00 0.00 80 1009.8
20260506114002 45 359 3.0 6.0 0.00 0.00 0.00 79 1009.8
20260506113503 45 357 3.0 6.0 0.00 0.00 0.00 79 1009.7
20260506113003 45 358 4.0 6.0 0.00 0.00 0.00 79 1009.7
20260506112502 45 359 4.0 6.0 0.00 0.00 0.00 79 1009.7
20260506112003 45 359 4.0 6.0 0.00 0.00 0.00 79 1009.7
20260506111503 45 1 4.0 6.0 0.00 0.00 0.00 79 1009.7
20260506111003 45 1 4.0 8.0 0.00 0.00 0.00 80 1009.8
20260506110502 45 1 4.0 8.0 0.00 0.00 0.00 80 1009.8
20260506110003 45 358 4.0 8.0 0.00 0.00 0.00 80 1009.7
20260506105503 45 357 4.0 9.0 0.00 0.00 0.00 80 1009.7
20260506105003 45 358 4.0 9.0 0.00 0.00 0.00 80 1009.7
20260506104003 46 358 4.0 6.0 0.00 0.00 0.00 80 1009.6
20260506103503 46 357 5.0 9.0 0.00 0.00 0.00 79 1009.6
20260506102502 46 358 5.0 9.0 0.00 0.00 0.00 79 1009.6
20260506102002 46 358 4.0 9.0 0.00 0.00 0.00 79 1009.6
20260506101503 46 359 4.0 8.0 0.00 0.00 0.00 79 1009.6
20260506100504 46 359 5.0 9.0 0.00 0.00 0.00 79 1009.6
20260506100002 46 1 4.0 9.0 0.00 0.00 0.00 79 1009.6
20260506094502 46 359 4.0 10.0 0.00 0.00 0.00 79 1009.5
20260506094003 46 359 5.0 10.0 0.00 0.00 0.00 79 1009.5
20260506093503 46 1 6.0 10.0 0.00 0.00 0.00 79 1009.5
20260506093002 46 1 6.0 12.0 0.00 0.00 0.00 79 1009.5
20260506092003 46 1 8.0 12.0 0.00 0.00 0.00 79 1009.4
20260506091503 47 1 8.0 12.0 0.00 0.00 0.00 80 1009.5
20260506091003 47 1 7.0 12.0 0.00 0.00 0.00 80 1009.5
20260506090502 47 1 6.0 10.0 0.00 0.00 0.00 80 1009.5
20260506090003 47 1 7.0 10.0 0.00 0.00 0.00 80 1009.6
20260506085503 47 1 7.0 11.0 0.00 0.00 0.00 80 1009.5
20260506085002 47 1 7.0 12.0 0.00 0.00 0.00 81 1009.5
20260506084504 47 1 7.0 12.0 0.00 0.00 0.00 81 1009.6
20260506084003 47 1 7.0 12.0 0.00 0.00 0.00 81 1009.4
20260506083503 46 1 7.0 12.0 0.00 0.00 0.00 81 1009.5
20260506083003 46 1 7.0 12.0 0.00 0.00 0.00 81 1009.5
20260506082002 46 1 5.0 10.0 0.00 0.00 0.00 81 1009.5
20260506081503 46 359 5.0 9.0 0.00 0.00 0.00 81 1009.5
20260506081003 46 1 6.0 11.0 0.00 0.00 0.00 81 1009.6
20260506080503 46 2 7.0 11.0 0.00 0.00 0.00 81 1009.6
20260506073503 47 1 5.0 10.0 0.00 0.00 0.00 80 1009.6
20260506073003 47 1 5.0 10.0 0.00 0.00 0.00 80 1009.6
20260506072503 47 359 5.0 10.0 0.00 0.00 0.00 80 1009.6
20260506072002 47 359 6.0 11.0 0.00 0.00 0.00 79 1009.6
20260506071503 47 1 6.0 11.0 0.00 0.00 0.00 79 1009.6
20260506070503 47 1 7.0 11.0 0.00 0.00 0.00 78 1009.6
20260506062505 48 3 6.0 9.0 0.00 0.00 0.00 75 1009.5
20260506062003 48 2 4.0 8.0 0.00 0.00 0.00 75 1009.4
20260506061503 48 357 3.0 8.0 0.00 0.00 0.00 75 1009.3
20260506060503 48 359 3.0 6.0 0.00 0.00 0.00 74 1009.3
20260506050503 48 1 3.0 9.0 0.00 0.00 0.00 72 1008.9
20260506045002 49 359 3.0 9.0 0.00 0.00 0.00 72 1008.6
20260506044503 49 1 4.0 9.0 0.00 0.00 0.00 72 1008.6
20260506044003 49 359 4.0 8.0 0.00 0.00 0.00 72 1008.5
20260506043002 49 359 4.0 10.0 0.00 0.00 0.00 71 1008.3
20260506042503 49 359 4.0 10.0 0.00 0.00 0.00 71 1008.2
20260506042003 49 359 4.0 9.0 0.00 0.00 0.00 71 1008.2
20260506041503 49 359 4.0 9.0 0.00 0.00 0.00 70 1008.2
20260506041002 49 1 4.0 9.0 0.00 0.00 0.00 70 1008.1
20260506040503 50 1 5.0 9.0 0.00 0.00 0.00 70 1008.1
20260506040003 50 1 5.0 9.0 0.00 0.00 0.00 70 1007.9
20260506035503 50 1 5.0 10.0 0.00 0.00 0.00 69 1007.8
20260506035002 50 1 5.0 11.0 0.00 0.00 0.00 69 1007.7
20260506034503 50 1 6.0 11.0 0.00 0.00 0.00 69 1007.6
20260506033002 50 359 5.0 10.0 0.00 0.00 0.00 68 1007.5
20260506032503 50 1 5.0 10.0 0.00 0.00 0.00 68 1007.5
20260506032003 50 1 4.0 10.0 0.00 0.00 0.00 68 1007.4
20260506031502 51 359 5.0 11.0 0.00 0.00 0.00 68 1007.4
20260506031002 51 359 5.0 11.0 0.00 0.00 0.00 68 1007.4
20260506030503 51 359 6.0 12.0 0.00 0.00 0.00 67 1007.2
20260506030003 51 1 7.0 12.0 0.00 0.00 0.00 67 1007.0
20260506025503 51 1 7.0 13.0 0.00 0.00 0.00 67 1007.0
20260506025003 51 359 8.0 13.0 0.00 0.00 0.00 66 1006.9
20260506024004 52 1 6.0 15.0 0.00 0.00 0.00 65 1006.8
20260506023003 53 359 6.0 15.0 0.00 0.00 0.00 64 1006.6
20260506022502 53 359 6.0 12.0 0.00 0.00 0.00 64 1006.5
20260506022003 53 1 6.0 15.0 0.00 0.00 0.00 63 1006.4
20260506021503 53 359 7.0 15.0 0.00 0.00 0.00 63 1006.4
20260506020503 54 359 9.0 16.0 0.00 0.00 0.00 62 1006.4
20260506020003 54 359 8.0 16.0 0.00 0.00 0.00 61 1006.1
20260506015504 54 1 8.0 15.0 0.00 0.00 0.00 61 1006.2
20260506014503 55 1 10.0 15.0 0.00 0.00 0.00 61 1005.9
20260506013504 55 1 10.0 17.0 0.00 0.00 0.00 60 1005.7
20260506013003 55 1 9.0 17.0 0.00 0.00 0.00 60 1005.7
20260506012004 56 1 9.0 17.0 0.00 0.00 0.00 58 1005.8
20260506011503 56 1 9.0 16.0 0.00 0.00 0.00 58 1005.9
20260506010503 56 1 10.0 16.0 0.00 0.00 0.00 58 1005.8
20260506010003 56 1 11.0 19.0 0.00 0.00 0.00 57 1005.6
20260506005503 56 1 12.0 19.0 0.00 0.00 0.00 56 1005.5
20260506005002 57 1 11.0 18.0 0.00 0.00 0.00 55 1005.7
20260506004504 57 1 10.0 17.0 0.00 0.00 0.00 54 1005.6